TIANYAN 01

Last updated on Mon Feb 10 2025 00:03:05 GMT+0000 (Coordinated Universal Time)

1 44881U 19093C 25040.58563135 .00001970 00000+0 23636-3 0 9993 2 44881 97.8047 118.7242 0012633 265.0955 94.8818 14.85110675278265
UTC large
Height (km)
Speed (km/s)
/
Latitude / Longitude
Inclination (degrees)
Orbital Period (minutes)
Azimuth
Elevation
Range (km)
Doppler Factor

Next 0 passes for location: London (51.5072 / 0.1276)

Sorry there are no passes over London.